Location: Poznań
(52.4062°N, 16.9234°E)
Time: 02:13:41
(UTC+01:00)

ISS - Pass Details

Date: 26 January 2019
Orbit: 403 x 411 km, 51.6° (Epoch: 20 February)

Event Time Altitude Azimuth Distance (km) Brightness Sun altitude
Rises 17:37:22 0° 215° (SW) 2,325 0.9 -10.6°
Reaches altitude 10° 17:39:45 10° 199° (SSW) 1,470 -0.5 -11.0°
Maximum altitude 17:42:20 22° 147° (SSE) 968 -2.1 -11.4°
Enters shadow 17:44:02 15° 107° (ESE) 1,214 -1.9 -11.6°
